COOK73 ZBLA-RJOC

Flight info

Callsign COOK73
Flight time 2h 38m
Altitude 27000
Route TEP09D TEPOD B451 UGABI W39 YNJ R224 VASRO/K0826F270 M825 KANSU/N0449F270 B332 IGRAS Y332 MIHOU
Aircraft C25C/M-SDE2E3FGHRWXY/LB1

Departure

Time 2026-04-16 14:43
Airport Hulunbuir Hailar Airport (ZBLA)

Arrival

Time 2026-04-16 17:21
Airport Izumo Enmusubi Airport (RJOC)
Time Latitude Longitude Altitude Speed Heading
2026-04-16 14:24 49.20881 119.80537 2161 ft 0 kts
2026-04-16 14:29 49.20875 119.80537 2158 ft 3 kts 359°
2026-04-16 14:29 49.20863 119.80542 2156 ft 2 kts 318°
2026-04-16 14:30 49.20860 119.80557 2161 ft 2 kts 245°
2026-04-16 14:30 49.20864 119.80570 2157 ft 0 kts 249°
2026-04-16 14:32 49.20860 119.80564 2158 ft 2 kts 215°
2026-04-16 14:32 49.20850 119.80562 2162 ft 3 kts 175°
2026-04-16 14:32 49.20813 119.80583 2159 ft 7 kts 167°
2026-04-16 14:33 49.20757 119.80593 2161 ft 8 kts 174°
2026-04-16 14:33 49.20704 119.80602 2161 ft 7 kts 174°
2026-04-16 14:33 49.20668 119.80607 2158 ft 0 kts 174°
2026-04-16 14:35 49.20659 119.80609 2161 ft 5 kts 171°
2026-04-16 14:35 49.20618 119.80653 2154 ft 9 kts 109°
2026-04-16 14:35 49.20620 119.80768 2156 ft 13 kts 85°
2026-04-16 14:35 49.20629 119.80924 2161 ft 16 kts 81°
2026-04-16 14:36 49.20644 119.81105 2161 ft 18 kts 84°
2026-04-16 14:36 49.20657 119.81290 2160 ft 17 kts 84°
2026-04-16 14:36 49.20669 119.81463 2160 ft 16 kts 84°
2026-04-16 14:36 49.20680 119.81625 2158 ft 15 kts 84°
2026-04-16 14:37 49.20691 119.81774 2161 ft 13 kts 82°
2026-04-16 14:37 49.20701 119.81913 2161 ft 13 kts 84°
2026-04-16 14:37 49.20711 119.82047 2161 ft 12 kts 84°
2026-04-16 14:37 49.20720 119.82172 2161 ft 12 kts 83°
2026-04-16 14:38 49.20677 119.82251 2161 ft 11 kts 173°
2026-04-16 14:38 49.20597 119.82266 2158 ft 13 kts 162°
2026-04-16 14:38 49.20574 119.82379 2160 ft 12 kts 84°
2026-04-16 14:38 49.20583 119.82508 2162 ft 13 kts 83°
2026-04-16 14:39 49.20595 119.82669 2161 ft 18 kts 84°
2026-04-16 14:39 49.20612 119.82909 2161 ft 27 kts 84°
2026-04-16 14:39 49.20632 119.83193 2160 ft 27 kts 83°
2026-04-16 14:39 49.20650 119.83472 2158 ft 26 kts 84°
2026-04-16 14:40 49.20669 119.83740 2160 ft 25 kts 83°
2026-04-16 14:40 49.20687 119.83997 2160 ft 24 kts 84°
2026-04-16 14:40 49.20704 119.84249 2161 ft 24 kts 84°
2026-04-16 14:40 49.20722 119.84498 2156 ft 23 kts 82°
2026-04-16 14:41 49.20759 119.84617 2159 ft 12 kts 54°
2026-04-16 14:41 49.20759 119.84698 2157 ft 7 kts 160°
2026-04-16 14:41 49.20734 119.84669 2160 ft 4 kts 260°
2026-04-16 14:41 49.20734 119.84668 2160 ft 0 kts 260°
2026-04-16 14:42 49.20734 119.84666 2160 ft 3 kts 260°
2026-04-16 14:42 49.20705 119.84308 2157 ft 75 kts 264°
2026-04-16 14:42 49.20617 119.83123 2357 ft 126 kts 261°
2026-04-16 14:43 49.20488 119.81823 3053 ft 147 kts 261°
2026-04-16 14:43 49.20341 119.80061 3492 ft 183 kts 259°
2026-04-16 14:43 49.20226 119.77963 4059 ft 210 kts 264°
2026-04-16 14:43 49.19766 119.75936 5169 ft 200 kts 229°
2026-04-16 14:44 49.18699 119.74616 6231 ft 200 kts 199°
2026-04-16 14:44 49.17320 119.74379 7204 ft 205 kts 172°
2026-04-16 14:44 49.16019 119.75302 8088 ft 216 kts 149°
2026-04-16 14:44 49.14747 119.76592 8995 ft 223 kts 147°
2026-04-16 14:45 49.13451 119.77974 9908 ft 231 kts 147°
2026-04-16 14:45 49.12114 119.79376 10786 ft 235 kts 148°
2026-04-16 14:45 49.10749 119.80785 11697 ft 238 kts 150°
2026-04-16 14:45 49.09369 119.82214 12599 ft 242 kts 151°
2026-04-16 14:46 49.07963 119.83666 13493 ft 245 kts 152°
2026-04-16 14:46 49.06541 119.85138 14303 ft 248 kts 153°
2026-04-16 14:46 49.05102 119.86628 15093 ft 251 kts 153°
2026-04-16 14:46 49.03668 119.88106 15865 ft 253 kts 153°
2026-04-16 14:47 49.02207 119.89638 16653 ft 258 kts 150°
2026-04-16 14:47 49.01059 119.91841 17439 ft 276 kts 122°
2026-04-16 14:47 49.00406 119.94658 18232 ft 285 kts 112°
2026-04-16 14:47 48.99868 119.97596 18933 ft 291 kts 110°
2026-04-16 14:48 48.99322 120.00582 19643 ft 295 kts 111°
2026-04-16 14:48 48.98737 120.03600 20386 ft 299 kts 112°
2026-04-16 14:48 48.98133 120.06660 21140 ft 304 kts 112°
2026-04-16 14:48 48.97528 120.09775 21883 ft 309 kts 113°
2026-04-16 14:49 48.96916 120.12945 22585 ft 314 kts 113°
2026-04-16 14:49 48.96289 120.16165 23268 ft 319 kts 113°
2026-04-16 14:49 48.95654 120.19423 23868 ft 323 kts 113°
2026-04-16 14:49 48.95019 120.22682 24431 ft 326 kts 113°
2026-04-16 14:50 48.94370 120.26001 24989 ft 329 kts 113°
2026-04-16 14:50 48.93713 120.29352 25544 ft 332 kts 114°
2026-04-16 14:50 48.93052 120.32727 26097 ft 334 kts 114°
2026-04-16 14:50 48.92381 120.36131 26648 ft 337 kts 114°
2026-04-16 14:51 48.91701 120.39585 26961 ft 348 kts 114°
2026-04-16 14:51 48.90936 120.43177 27000 ft 363 kts 120°
2026-04-16 14:51 48.89610 120.46444 27008 ft 370 kts 133°
2026-04-16 14:51 48.88112 120.49737 27010 ft 387 kts 133°
2026-04-16 14:53 48.76254 120.75654 27020 ft 455 kts 131°
2026-04-16 14:53 48.74441 120.79594 27026 ft 456 kts 131°
2026-04-16 14:54 48.72630 120.83533 27026 ft 455 kts 131°
2026-04-16 14:54 48.70817 120.87458 27028 ft 454 kts 131°
2026-04-16 14:54 48.69008 120.91374 27026 ft 453 kts 131°
2026-04-16 14:54 48.67199 120.95277 27030 ft 453 kts 132°
2026-04-16 14:55 48.65392 120.99186 27026 ft 452 kts 131°
2026-04-16 14:55 48.63582 121.03084 27024 ft 452 kts 132°
2026-04-16 14:55 48.61775 121.06967 27026 ft 451 kts 132°
2026-04-16 14:55 48.59995 121.10797 27024 ft 451 kts 132°
2026-04-16 14:56 48.58186 121.14675 27017 ft 451 kts 132°
2026-04-16 14:56 48.56379 121.18546 27014 ft 451 kts 132°
2026-04-16 14:56 48.54573 121.22416 27016 ft 451 kts 132°
2026-04-16 14:56 48.52763 121.26276 27010 ft 451 kts 132°
2026-04-16 14:57 48.50948 121.30148 27007 ft 451 kts 132°
2026-04-16 14:57 48.49136 121.34014 27005 ft 451 kts 132°
2026-04-16 14:57 48.47316 121.37884 27003 ft 452 kts 133°
2026-04-16 14:57 48.45497 121.41742 27000 ft 452 kts 133°
2026-04-16 14:58 48.43681 121.45601 27002 ft 451 kts 133°
2026-04-16 14:58 48.40034 121.53315 26998 ft 452 kts 133°
2026-04-16 14:58 48.38213 121.57160 27001 ft 452 kts 133°
2026-04-16 14:59 48.36390 121.61014 27001 ft 452 kts 133°
2026-04-16 14:59 48.34564 121.64858 26997 ft 452 kts 133°
2026-04-16 14:59 48.32734 121.68698 26996 ft 451 kts 133°
2026-04-16 14:59 48.30935 121.72483 27003 ft 451 kts 133°
2026-04-16 15:00 48.29105 121.76325 27000 ft 452 kts 133°
2026-04-16 15:00 48.27270 121.80159 27000 ft 452 kts 133°
2026-04-16 15:00 48.25439 121.83993 27003 ft 452 kts 133°
2026-04-16 15:00 48.23608 121.87819 27005 ft 452 kts 133°
2026-04-16 15:01 48.21773 121.91642 27005 ft 452 kts 133°
2026-04-16 15:01 48.19938 121.95467 27000 ft 452 kts 133°
2026-04-16 15:01 48.18101 121.99286 27003 ft 452 kts 133°
2026-04-16 15:01 48.16264 122.03101 26995 ft 452 kts 133°
2026-04-16 15:02 48.14418 122.06928 26995 ft 452 kts 133°
2026-04-16 15:02 48.12578 122.10742 26989 ft 452 kts 133°
2026-04-16 15:02 48.10732 122.14555 26987 ft 451 kts 133°
2026-04-16 15:02 48.08893 122.18355 26981 ft 451 kts 133°
2026-04-16 15:03 48.07054 122.22145 26990 ft 450 kts 134°
2026-04-16 15:03 48.05213 122.25942 26989 ft 450 kts 133°
2026-04-16 15:03 48.03367 122.29734 26983 ft 450 kts 133°
2026-04-16 15:03 48.01528 122.33510 26984 ft 449 kts 134°
2026-04-16 15:04 47.99709 122.37242 26982 ft 450 kts 134°
2026-04-16 15:04 47.97865 122.41017 26978 ft 449 kts 134°
2026-04-16 15:04 47.96024 122.44785 26976 ft 449 kts 134°
2026-04-16 15:04 47.94179 122.48552 26972 ft 450 kts 134°
2026-04-16 15:05 47.92335 122.52311 26974 ft 450 kts 134°
2026-04-16 15:05 47.90487 122.56075 26970 ft 450 kts 134°
2026-04-16 15:05 47.88639 122.59833 26972 ft 450 kts 134°
2026-04-16 15:05 47.86788 122.63594 26970 ft 450 kts 134°
2026-04-16 15:06 47.84937 122.67348 26970 ft 449 kts 134°
2026-04-16 15:06 47.83091 122.71091 26971 ft 449 kts 134°
2026-04-16 15:06 47.81862 122.73572 26965 ft 449 kts 134°
2026-04-16 15:06 47.80020 122.77318 26967 ft 449 kts 133°
2026-04-16 15:07 47.78250 122.81167 26964 ft 449 kts 133°
2026-04-16 15:07 47.76417 122.84927 26965 ft 448 kts 134°
2026-04-16 15:07 47.74583 122.88689 26966 ft 450 kts 134°
2026-04-16 15:07 47.72781 122.92498 26963 ft 451 kts 133°
2026-04-16 15:08 47.70984 122.96309 26967 ft 450 kts 134°
2026-04-16 15:08 47.69171 123.00098 26968 ft 450 kts 134°
2026-04-16 15:08 47.67347 123.03880 26966 ft 450 kts 134°
2026-04-16 15:08 47.65528 123.07671 26963 ft 451 kts 134°
2026-04-16 15:09 47.63712 123.11467 26959 ft 451 kts 134°
2026-04-16 15:09 47.61896 123.15249 26960 ft 451 kts 134°
2026-04-16 15:09 47.60095 123.18978 26962 ft 451 kts 134°
2026-04-16 15:09 47.58252 123.22806 26962 ft 451 kts 135°
2026-04-16 15:10 47.56448 123.26542 26963 ft 451 kts 135°
2026-04-16 15:10 47.54622 123.30316 26959 ft 451 kts 135°
2026-04-16 15:10 47.52797 123.34091 26960 ft 451 kts 135°
2026-04-16 15:10 47.50970 123.37855 26959 ft 451 kts 135°
2026-04-16 15:11 47.49143 123.41622 26962 ft 451 kts 135°
2026-04-16 15:11 47.47306 123.45398 26959 ft 451 kts 135°
2026-04-16 15:11 47.45474 123.49162 26956 ft 451 kts 135°
2026-04-16 15:11 47.43642 123.52924 26958 ft 450 kts 135°
2026-04-16 15:12 47.41809 123.56675 26961 ft 450 kts 135°
2026-04-16 15:12 47.39978 123.60425 26958 ft 450 kts 135°
2026-04-16 15:12 47.38146 123.64162 26960 ft 450 kts 135°
2026-04-16 15:12 47.36314 123.67904 26963 ft 450 kts 136°
2026-04-16 15:13 47.34480 123.71639 26960 ft 449 kts 136°
2026-04-16 15:13 47.32647 123.75370 26959 ft 449 kts 136°
2026-04-16 15:13 47.30812 123.79097 26962 ft 449 kts 136°
2026-04-16 15:13 47.28979 123.82821 26960 ft 449 kts 136°
2026-04-16 15:14 47.27141 123.86544 26962 ft 449 kts 136°
2026-04-16 15:14 47.25304 123.90257 26965 ft 448 kts 136°
2026-04-16 15:14 47.23332 123.93722 26964 ft 435 kts 146°
2026-04-16 15:14 47.21185 123.96867 26961 ft 436 kts 145°
2026-04-16 15:15 47.19086 124.00008 26965 ft 436 kts 144°
2026-04-16 15:15 47.16966 124.03189 26964 ft 436 kts 144°
2026-04-16 15:15 47.14834 124.06356 26962 ft 435 kts 145°
2026-04-16 15:15 47.12704 124.09511 26962 ft 435 kts 145°
2026-04-16 15:16 47.10575 124.12672 26961 ft 435 kts 145°
2026-04-16 15:16 47.08444 124.15832 26960 ft 435 kts 145°
2026-04-16 15:16 47.06315 124.18988 26967 ft 435 kts 145°
2026-04-16 15:16 47.04181 124.22139 26966 ft 435 kts 145°
2026-04-16 15:17 47.02051 124.25282 26965 ft 435 kts 145°
2026-04-16 15:17 46.99917 124.28434 26967 ft 435 kts 145°
2026-04-16 15:17 46.97784 124.31576 26968 ft 435 kts 145°
2026-04-16 15:17 46.95648 124.34719 26964 ft 435 kts 145°
2026-04-16 15:18 46.93513 124.37856 26966 ft 435 kts 145°
2026-04-16 15:18 46.91374 124.40999 26964 ft 435 kts 145°
2026-04-16 15:18 46.89238 124.44126 26965 ft 435 kts 145°
2026-04-16 15:18 46.87125 124.47225 26968 ft 435 kts 145°
2026-04-16 15:19 46.84987 124.50349 26967 ft 435 kts 145°
2026-04-16 15:19 46.82842 124.53487 26966 ft 435 kts 145°
2026-04-16 15:19 46.80697 124.56613 26963 ft 436 kts 145°
2026-04-16 15:19 46.78550 124.59744 26966 ft 436 kts 145°
2026-04-16 15:20 46.76400 124.62873 26966 ft 436 kts 145°
2026-04-16 15:20 46.74251 124.65999 26965 ft 436 kts 145°
2026-04-16 15:20 46.72100 124.69124 26963 ft 437 kts 145°
2026-04-16 15:20 46.69948 124.72243 26968 ft 437 kts 145°
2026-04-16 15:21 46.67797 124.75362 26965 ft 437 kts 145°
2026-04-16 15:21 46.65635 124.78488 26966 ft 437 kts 145°
2026-04-16 15:21 46.63482 124.81603 26965 ft 437 kts 145°
2026-04-16 15:21 46.61323 124.84716 26963 ft 437 kts 145°
2026-04-16 15:22 46.59194 124.87789 26964 ft 437 kts 146°
2026-04-16 15:22 46.57033 124.90900 26963 ft 437 kts 145°
2026-04-16 15:22 46.54874 124.94007 26963 ft 437 kts 146°
2026-04-16 15:22 46.52716 124.97107 26965 ft 437 kts 145°
2026-04-16 15:23 46.50556 125.00207 26967 ft 437 kts 145°
2026-04-16 15:23 46.48396 125.03306 26966 ft 436 kts 145°
2026-04-16 15:23 46.46235 125.06396 26968 ft 436 kts 145°
2026-04-16 15:23 46.44070 125.09495 26966 ft 436 kts 145°
2026-04-16 15:24 46.41912 125.12576 26967 ft 436 kts 145°
2026-04-16 15:24 46.39754 125.15657 26970 ft 435 kts 145°
2026-04-16 15:24 46.37595 125.18733 26967 ft 435 kts 145°
2026-04-16 15:24 46.35434 125.21806 26972 ft 435 kts 145°
2026-04-16 15:25 46.33277 125.24875 26970 ft 435 kts 145°
2026-04-16 15:25 46.31120 125.27940 26967 ft 435 kts 145°
2026-04-16 15:25 46.28961 125.30997 26967 ft 434 kts 145°
2026-04-16 15:25 46.26804 125.34058 26968 ft 434 kts 145°
2026-04-16 15:26 46.24664 125.37139 26965 ft 435 kts 144°
2026-04-16 15:26 46.22548 125.40271 26956 ft 435 kts 143°
2026-04-16 15:26 46.20458 125.43335 26968 ft 434 kts 144°
2026-04-16 15:26 46.18324 125.46413 26968 ft 433 kts 144°
2026-04-16 15:27 46.16193 125.49493 26970 ft 434 kts 144°
2026-04-16 15:27 46.14061 125.52585 26967 ft 434 kts 144°
2026-04-16 15:27 46.11936 125.55672 26967 ft 433 kts 144°
2026-04-16 15:27 46.09806 125.58746 26969 ft 433 kts 144°
2026-04-16 15:28 46.07680 125.61816 26972 ft 433 kts 144°
2026-04-16 15:28 46.05549 125.64889 26975 ft 433 kts 143°
2026-04-16 15:28 46.03422 125.67955 26972 ft 433 kts 144°
2026-04-16 15:28 46.01289 125.71024 26972 ft 433 kts 144°
2026-04-16 15:29 45.99152 125.74094 26971 ft 433 kts 143°
2026-04-16 15:29 45.97023 125.77153 26972 ft 433 kts 144°
2026-04-16 15:29 45.94885 125.80221 26971 ft 434 kts 143°
2026-04-16 15:29 45.92748 125.83277 26965 ft 434 kts 144°
2026-04-16 15:30 45.90614 125.86333 26970 ft 434 kts 144°
2026-04-16 15:30 45.88475 125.89388 26971 ft 434 kts 143°
2026-04-16 15:30 45.86336 125.92445 26973 ft 434 kts 144°
2026-04-16 15:30 45.84194 125.95496 26971 ft 434 kts 144°
2026-04-16 15:31 45.82052 125.98550 26974 ft 434 kts 144°
2026-04-16 15:31 45.79937 126.01556 26975 ft 435 kts 144°
2026-04-16 15:31 45.77790 126.04609 26978 ft 435 kts 144°
2026-04-16 15:31 45.75640 126.07659 26980 ft 435 kts 144°
2026-04-16 15:32 45.73488 126.10712 26979 ft 436 kts 144°
2026-04-16 15:32 45.71331 126.13762 26985 ft 436 kts 144°
2026-04-16 15:32 45.69174 126.16816 26984 ft 436 kts 144°
2026-04-16 15:32 45.67014 126.19867 26984 ft 437 kts 144°
2026-04-16 15:33 45.64851 126.22921 26981 ft 437 kts 144°
2026-04-16 15:33 45.62688 126.25976 26982 ft 438 kts 143°
2026-04-16 15:33 45.60629 126.29223 26984 ft 441 kts 140°
2026-04-16 15:33 45.58553 126.32449 26985 ft 440 kts 141°
2026-04-16 15:34 45.56467 126.35647 26985 ft 441 kts 141°
2026-04-16 15:34 45.54388 126.38871 26983 ft 442 kts 141°
2026-04-16 15:34 45.52318 126.42114 26982 ft 442 kts 141°
2026-04-16 15:34 45.50239 126.45344 26983 ft 442 kts 141°
2026-04-16 15:35 45.48154 126.48566 26981 ft 442 kts 141°
2026-04-16 15:35 45.46067 126.51787 26983 ft 443 kts 141°
2026-04-16 15:35 45.43985 126.55012 26982 ft 443 kts 141°
2026-04-16 15:35 45.41898 126.58236 26983 ft 443 kts 141°
2026-04-16 15:36 45.39804 126.61463 26984 ft 443 kts 141°
2026-04-16 15:36 45.37714 126.64683 26983 ft 443 kts 141°
2026-04-16 15:36 45.35622 126.67899 26984 ft 443 kts 141°
2026-04-16 15:36 45.33533 126.71114 26988 ft 443 kts 141°
2026-04-16 15:37 45.31460 126.74290 26987 ft 444 kts 141°
2026-04-16 15:37 45.29358 126.77515 26989 ft 444 kts 141°
2026-04-16 15:37 45.27258 126.80735 26991 ft 444 kts 141°
2026-04-16 15:37 45.25156 126.83947 26993 ft 444 kts 141°
2026-04-16 15:38 45.23055 126.87159 26989 ft 444 kts 141°
2026-04-16 15:38 45.20952 126.90363 26992 ft 444 kts 141°
2026-04-16 15:38 45.18851 126.93571 26992 ft 444 kts 141°
2026-04-16 15:38 45.16744 126.96774 26995 ft 444 kts 140°
2026-04-16 15:39 45.14641 126.99975 26999 ft 444 kts 141°
2026-04-16 15:39 45.12534 127.03174 27000 ft 444 kts 140°
2026-04-16 15:39 45.10423 127.06376 26996 ft 444 kts 140°
2026-04-16 15:39 45.08317 127.09571 26995 ft 444 kts 140°
2026-04-16 15:40 45.06210 127.12755 26997 ft 444 kts 140°
2026-04-16 15:40 45.04101 127.15949 26999 ft 444 kts 140°
2026-04-16 15:40 45.01992 127.19132 26996 ft 444 kts 140°
2026-04-16 15:40 44.99916 127.22369 27000 ft 445 kts 139°
2026-04-16 15:41 44.97856 127.25631 27004 ft 445 kts 139°
2026-04-16 15:41 44.95780 127.28866 27005 ft 444 kts 140°
2026-04-16 15:41 44.93692 127.32075 27003 ft 444 kts 140°
2026-04-16 15:41 44.91637 127.35257 27003 ft 445 kts 139°
2026-04-16 15:42 44.89554 127.38490 27007 ft 445 kts 139°
2026-04-16 15:42 44.87474 127.41715 27001 ft 445 kts 140°
2026-04-16 15:42 44.85385 127.44935 27003 ft 445 kts 140°
2026-04-16 15:42 44.83295 127.48159 27005 ft 446 kts 140°
2026-04-16 15:43 44.81200 127.51386 27003 ft 446 kts 139°
2026-04-16 15:43 44.79110 127.54608 27002 ft 446 kts 140°
2026-04-16 15:43 44.77014 127.57830 27004 ft 446 kts 139°
2026-04-16 15:43 44.74917 127.61049 27004 ft 446 kts 140°
2026-04-16 15:44 44.72814 127.64277 26998 ft 446 kts 139°
2026-04-16 15:44 44.70718 127.67486 26999 ft 446 kts 140°
2026-04-16 15:44 44.68620 127.70699 27004 ft 446 kts 140°
2026-04-16 15:44 44.66520 127.73910 27001 ft 446 kts 140°
2026-04-16 15:45 44.64414 127.77123 27001 ft 446 kts 140°
2026-04-16 15:45 44.62314 127.80330 27003 ft 446 kts 140°
2026-04-16 15:45 44.60207 127.83537 26999 ft 446 kts 140°
2026-04-16 15:45 44.58105 127.86738 27002 ft 446 kts 140°
2026-04-16 15:46 44.55999 127.89938 27004 ft 446 kts 140°
2026-04-16 15:46 44.53920 127.93094 27001 ft 446 kts 140°
2026-04-16 15:46 44.51786 127.96332 26998 ft 447 kts 140°
2026-04-16 15:46 44.49674 127.99527 26998 ft 447 kts 140°
2026-04-16 15:47 44.47562 128.02724 26998 ft 447 kts 140°
2026-04-16 15:47 44.45477 128.05879 27000 ft 447 kts 140°
2026-04-16 15:47 44.43358 128.09074 27000 ft 447 kts 140°
2026-04-16 15:47 44.41242 128.12265 26997 ft 447 kts 140°
2026-04-16 15:48 44.39123 128.15457 26989 ft 447 kts 140°
2026-04-16 15:48 44.37004 128.18644 26988 ft 448 kts 140°
2026-04-16 15:48 44.34885 128.21827 26998 ft 447 kts 140°
2026-04-16 15:48 44.32770 128.25007 26995 ft 447 kts 140°
2026-04-16 15:49 44.30650 128.28184 26994 ft 446 kts 140°
2026-04-16 15:49 44.28532 128.31352 26992 ft 446 kts 140°
2026-04-16 15:49 44.26419 128.34515 26993 ft 445 kts 140°
2026-04-16 15:49 44.24307 128.37673 26988 ft 445 kts 140°
2026-04-16 15:50 44.22193 128.40824 26985 ft 445 kts 140°
2026-04-16 15:50 44.20083 128.43972 26986 ft 445 kts 140°
2026-04-16 15:50 44.17968 128.47121 26986 ft 445 kts 140°
2026-04-16 15:50 44.15850 128.50269 26986 ft 445 kts 140°
2026-04-16 15:51 44.13731 128.53398 26988 ft 443 kts 141°
2026-04-16 15:51 44.11320 128.55927 26987 ft 428 kts 157°
2026-04-16 15:51 44.08706 128.57870 26988 ft 425 kts 160°
2026-04-16 15:51 44.06073 128.59716 26994 ft 423 kts 161°
2026-04-16 15:52 44.03433 128.61536 26992 ft 424 kts 160°
2026-04-16 15:52 44.00830 128.63379 26986 ft 425 kts 160°
2026-04-16 15:52 43.98206 128.65269 26987 ft 425 kts 160°
2026-04-16 15:52 43.95571 128.67138 26987 ft 425 kts 160°
2026-04-16 15:53 43.92932 128.68986 26997 ft 425 kts 160°
2026-04-16 15:53 43.90295 128.70844 26994 ft 425 kts 160°
2026-04-16 15:53 43.87661 128.72708 26999 ft 425 kts 160°
2026-04-16 15:53 43.85018 128.74575 27000 ft 425 kts 160°
2026-04-16 15:54 43.82379 128.76424 27001 ft 426 kts 160°
2026-04-16 15:54 43.80626 128.77657 27002 ft 426 kts 160°
2026-04-16 15:54 43.77092 128.80145 27012 ft 426 kts 160°
2026-04-16 15:54 43.75339 128.81375 27017 ft 426 kts 160°
2026-04-16 15:55 43.72696 128.83227 27017 ft 427 kts 160°
2026-04-16 15:55 43.70045 128.85093 27027 ft 427 kts 160°
2026-04-16 15:55 43.67400 128.86959 27031 ft 426 kts 160°
2026-04-16 15:55 43.64759 128.88817 27035 ft 427 kts 160°
2026-04-16 15:56 43.62110 128.90672 27035 ft 427 kts 160°
2026-04-16 15:56 43.59462 128.92530 27041 ft 427 kts 160°
2026-04-16 15:56 43.56809 128.94386 27052 ft 427 kts 160°
2026-04-16 15:56 43.54162 128.96243 27056 ft 427 kts 160°
2026-04-16 15:57 43.51517 128.98091 27059 ft 427 kts 160°
2026-04-16 15:57 43.48861 128.99944 27066 ft 427 kts 160°
2026-04-16 15:57 43.46208 129.01796 27070 ft 428 kts 160°
2026-04-16 15:57 43.43555 129.03645 27077 ft 428 kts 160°
2026-04-16 15:58 43.40897 129.05500 27073 ft 428 kts 160°
2026-04-16 15:58 43.38259 129.07418 27079 ft 431 kts 157°
2026-04-16 15:58 43.35657 129.09452 27086 ft 430 kts 158°
2026-04-16 15:58 43.33025 129.11406 27083 ft 430 kts 159°
2026-04-16 15:59 43.27820 129.15357 27094 ft 431 kts 158°
2026-04-16 15:59 43.25204 129.17361 27089 ft 431 kts 158°
2026-04-16 15:59 43.22577 129.19353 27093 ft 431 kts 158°
2026-04-16 16:00 43.19954 129.21329 27096 ft 431 kts 158°
2026-04-16 16:00 43.17329 129.23324 27095 ft 431 kts 158°
2026-04-16 16:00 43.14703 129.25313 27090 ft 432 kts 158°
2026-04-16 16:00 43.12081 129.27299 27101 ft 430 kts 158°
2026-04-16 16:01 43.09461 129.29274 27098 ft 431 kts 159°
2026-04-16 16:01 43.06833 129.31258 27103 ft 431 kts 159°
2026-04-16 16:01 43.04203 129.33238 27112 ft 432 kts 158°
2026-04-16 16:01 43.01577 129.35221 27109 ft 432 kts 158°
2026-04-16 16:02 42.98941 129.37205 27107 ft 432 kts 158°
2026-04-16 16:02 42.96303 129.39184 27103 ft 433 kts 159°
2026-04-16 16:02 42.93665 129.41168 27105 ft 433 kts 158°
2026-04-16 16:02 42.91023 129.43148 27103 ft 433 kts 158°
2026-04-16 16:03 42.88379 129.45129 27098 ft 433 kts 159°
2026-04-16 16:03 42.85692 129.46942 27099 ft 431 kts 161°
2026-04-16 16:03 42.83023 129.48815 27104 ft 433 kts 159°
2026-04-16 16:03 42.80354 129.50710 27102 ft 432 kts 160°
2026-04-16 16:04 42.77671 129.52560 27099 ft 432 kts 160°
2026-04-16 16:04 42.74980 129.54396 27099 ft 432 kts 160°
2026-04-16 16:04 42.72295 129.56244 27100 ft 433 kts 160°
2026-04-16 16:04 42.69611 129.58102 27096 ft 433 kts 160°
2026-04-16 16:05 42.66959 129.59933 27097 ft 433 kts 160°
2026-04-16 16:05 42.64269 129.61778 27099 ft 434 kts 160°
2026-04-16 16:05 42.61572 129.63629 27109 ft 435 kts 160°
2026-04-16 16:05 42.58871 129.65481 27101 ft 435 kts 160°
2026-04-16 16:06 42.56171 129.67337 27104 ft 435 kts 160°
2026-04-16 16:06 42.53466 129.69188 27105 ft 435 kts 160°
2026-04-16 16:06 42.50760 129.71037 27105 ft 435 kts 160°
2026-04-16 16:06 42.48056 129.72890 27104 ft 435 kts 160°
2026-04-16 16:07 42.45372 129.74806 27108 ft 439 kts 156°
2026-04-16 16:07 42.42728 129.76870 27107 ft 438 kts 157°
2026-04-16 16:07 42.40058 129.78859 27102 ft 438 kts 158°
2026-04-16 16:07 42.37388 129.80863 27103 ft 440 kts 157°
2026-04-16 16:08 42.34724 129.82903 27100 ft 440 kts 157°
2026-04-16 16:08 42.32059 129.84945 27103 ft 440 kts 157°
2026-04-16 16:08 42.29390 129.86966 27107 ft 440 kts 157°
2026-04-16 16:08 42.26709 129.88991 27109 ft 441 kts 157°
2026-04-16 16:09 42.24036 129.91013 27100 ft 441 kts 157°
2026-04-16 16:09 42.21354 129.93048 27101 ft 440 kts 157°
2026-04-16 16:09 42.18680 129.95073 27106 ft 441 kts 157°
2026-04-16 16:09 42.16041 129.97060 27101 ft 441 kts 157°
2026-04-16 16:10 42.13360 129.99084 27105 ft 441 kts 156°
2026-04-16 16:10 42.10682 130.01102 27101 ft 442 kts 157°
2026-04-16 16:10 42.08001 130.03122 27109 ft 442 kts 156°
2026-04-16 16:10 42.05319 130.05139 27107 ft 442 kts 156°
2026-04-16 16:11 42.02635 130.07153 27104 ft 442 kts 156°
2026-04-16 16:11 41.99954 130.09170 27101 ft 442 kts 156°
2026-04-16 16:11 41.97264 130.11184 27105 ft 442 kts 156°
2026-04-16 16:11 41.94578 130.13200 27103 ft 442 kts 156°
2026-04-16 16:12 41.91885 130.15212 27100 ft 443 kts 156°
2026-04-16 16:12 41.89192 130.17229 27099 ft 443 kts 156°
2026-04-16 16:12 41.86497 130.19241 27101 ft 443 kts 156°
2026-04-16 16:12 41.83801 130.21253 27098 ft 443 kts 156°
2026-04-16 16:13 41.81107 130.23264 27100 ft 443 kts 156°
2026-04-16 16:13 41.78407 130.25273 27098 ft 443 kts 156°
2026-04-16 16:13 41.75746 130.27256 27101 ft 444 kts 156°
2026-04-16 16:13 41.73013 130.29284 27099 ft 444 kts 156°
2026-04-16 16:14 41.70350 130.31266 27098 ft 444 kts 156°
2026-04-16 16:14 41.67644 130.33270 27098 ft 444 kts 156°
2026-04-16 16:14 41.64944 130.35273 27106 ft 444 kts 156°
2026-04-16 16:14 41.62234 130.37278 27104 ft 444 kts 156°
2026-04-16 16:15 41.59531 130.39278 27099 ft 445 kts 156°
2026-04-16 16:15 41.56824 130.41279 27098 ft 445 kts 156°
2026-04-16 16:15 41.54115 130.43277 27104 ft 445 kts 156°
2026-04-16 16:15 41.51406 130.45278 27102 ft 445 kts 156°
2026-04-16 16:16 41.48694 130.47273 27099 ft 445 kts 156°
2026-04-16 16:16 41.45981 130.49273 27097 ft 445 kts 156°
2026-04-16 16:16 41.43260 130.51271 27100 ft 446 kts 156°
2026-04-16 16:16 41.40545 130.53268 27100 ft 446 kts 156°
2026-04-16 16:17 41.37825 130.55264 27097 ft 446 kts 156°
2026-04-16 16:17 41.35103 130.57260 27099 ft 446 kts 156°
2026-04-16 16:17 41.32386 130.59251 27106 ft 446 kts 156°
2026-04-16 16:17 41.29660 130.61244 27099 ft 447 kts 156°
2026-04-16 16:18 41.26937 130.63238 27100 ft 447 kts 156°
2026-04-16 16:18 41.24210 130.65227 27106 ft 447 kts 156°
2026-04-16 16:18 41.21517 130.67196 27108 ft 447 kts 156°
2026-04-16 16:18 41.18783 130.69185 27110 ft 448 kts 156°
2026-04-16 16:19 41.16049 130.71179 27107 ft 448 kts 156°
2026-04-16 16:19 41.13315 130.73168 27107 ft 448 kts 156°
2026-04-16 16:19 41.10580 130.75157 27113 ft 448 kts 156°
2026-04-16 16:19 41.07839 130.77148 27116 ft 449 kts 156°
2026-04-16 16:20 41.05102 130.79132 27115 ft 449 kts 156°
2026-04-16 16:20 41.02362 130.81121 27118 ft 449 kts 156°
2026-04-16 16:20 40.99616 130.83106 27125 ft 449 kts 156°
2026-04-16 16:20 40.96874 130.85094 27126 ft 449 kts 156°
2026-04-16 16:21 40.94132 130.87073 27126 ft 450 kts 156°
2026-04-16 16:21 40.91384 130.89060 27127 ft 450 kts 156°
2026-04-16 16:21 40.88639 130.91038 27130 ft 450 kts 156°
2026-04-16 16:21 40.85889 130.93021 27129 ft 450 kts 156°
2026-04-16 16:22 40.83140 130.95001 27128 ft 450 kts 156°
2026-04-16 16:22 40.80392 130.96976 27125 ft 450 kts 156°
2026-04-16 16:22 40.77643 130.98955 27133 ft 450 kts 156°
2026-04-16 16:22 40.74928 131.00901 27132 ft 450 kts 156°
2026-04-16 16:23 40.72178 131.02877 27134 ft 450 kts 156°
2026-04-16 16:23 40.69426 131.04846 27133 ft 450 kts 156°
2026-04-16 16:23 40.66675 131.06818 27134 ft 450 kts 156°
2026-04-16 16:23 40.63923 131.08785 27135 ft 450 kts 156°
2026-04-16 16:24 40.61167 131.10755 27137 ft 450 kts 156°
2026-04-16 16:24 40.58414 131.12721 27136 ft 450 kts 156°
2026-04-16 16:24 40.55660 131.14684 27141 ft 450 kts 156°
2026-04-16 16:24 40.52907 131.16649 27138 ft 450 kts 156°
2026-04-16 16:25 40.50165 131.18597 27141 ft 450 kts 156°
2026-04-16 16:25 40.47407 131.20563 27145 ft 450 kts 156°
2026-04-16 16:25 40.44652 131.22517 27149 ft 451 kts 156°
2026-04-16 16:25 40.41895 131.24477 27148 ft 451 kts 156°
2026-04-16 16:26 40.39136 131.26432 27147 ft 451 kts 156°
2026-04-16 16:26 40.36374 131.28391 27146 ft 451 kts 156°
2026-04-16 16:26 40.33613 131.30344 27154 ft 451 kts 156°
2026-04-16 16:26 40.30848 131.32299 27155 ft 451 kts 156°
2026-04-16 16:27 40.28083 131.34255 27155 ft 451 kts 156°
2026-04-16 16:27 40.25319 131.36204 27150 ft 451 kts 156°
2026-04-16 16:27 40.22552 131.38158 27156 ft 451 kts 156°
2026-04-16 16:27 40.19786 131.40104 27155 ft 451 kts 156°
2026-04-16 16:28 40.17023 131.42052 27155 ft 452 kts 156°
2026-04-16 16:28 40.14253 131.43999 27148 ft 452 kts 156°
2026-04-16 16:28 40.11485 131.45945 27158 ft 452 kts 156°
2026-04-16 16:28 40.08713 131.47890 27155 ft 452 kts 156°
2026-04-16 16:29 40.05946 131.49830 27155 ft 452 kts 156°
2026-04-16 16:29 40.03214 131.51747 27154 ft 452 kts 156°
2026-04-16 16:29 40.00446 131.53682 27162 ft 452 kts 156°
2026-04-16 16:29 39.97672 131.55625 27159 ft 452 kts 156°
2026-04-16 16:30 39.94897 131.57561 27159 ft 452 kts 156°
2026-04-16 16:30 39.92125 131.59500 27161 ft 452 kts 156°
2026-04-16 16:30 39.89351 131.61432 27163 ft 452 kts 156°
2026-04-16 16:30 39.86578 131.63366 27162 ft 452 kts 156°
2026-04-16 16:31 39.83803 131.65297 27160 ft 452 kts 156°
2026-04-16 16:31 39.81028 131.67228 27158 ft 452 kts 156°
2026-04-16 16:31 39.78253 131.69157 27168 ft 452 kts 156°
2026-04-16 16:31 39.75473 131.71085 27162 ft 452 kts 156°
2026-04-16 16:32 39.72713 131.73004 27067 ft 448 kts 158°
2026-04-16 16:32 39.69976 131.74902 27162 ft 444 kts 158°
2026-04-16 16:32 39.67251 131.76786 27165 ft 443 kts 158°
2026-04-16 16:32 39.64529 131.78665 27161 ft 443 kts 158°
2026-04-16 16:33 39.61808 131.80548 27162 ft 442 kts 158°
2026-04-16 16:33 39.59124 131.82403 27161 ft 442 kts 158°
2026-04-16 16:33 39.56412 131.84272 27162 ft 442 kts 158°
2026-04-16 16:33 39.53696 131.86146 27162 ft 442 kts 158°
2026-04-16 16:34 39.50982 131.88012 27160 ft 441 kts 158°
2026-04-16 16:34 39.48274 131.89879 27164 ft 441 kts 158°
2026-04-16 16:34 39.45561 131.91741 27165 ft 441 kts 158°
2026-04-16 16:34 39.42847 131.93607 27165 ft 441 kts 158°
2026-04-16 16:35 39.40135 131.95467 27165 ft 441 kts 158°
2026-04-16 16:35 39.37426 131.97325 27165 ft 441 kts 158°
2026-04-16 16:35 39.34712 131.99184 27168 ft 441 kts 158°
2026-04-16 16:35 39.31998 132.01041 27167 ft 441 kts 158°
2026-04-16 16:36 39.29280 132.02901 27165 ft 442 kts 158°
2026-04-16 16:36 39.26563 132.04755 27166 ft 442 kts 158°
2026-04-16 16:36 39.23850 132.06610 27166 ft 442 kts 158°
2026-04-16 16:36 39.21131 132.08462 27168 ft 442 kts 158°
2026-04-16 16:37 39.18412 132.10317 27167 ft 442 kts 158°
2026-04-16 16:37 39.15688 132.12170 27165 ft 442 kts 158°
2026-04-16 16:37 39.12967 132.14021 27170 ft 442 kts 158°
2026-04-16 16:37 39.10276 132.15851 27167 ft 443 kts 158°
2026-04-16 16:38 39.07516 132.17723 27167 ft 443 kts 158°
2026-04-16 16:38 39.04829 132.19549 27170 ft 443 kts 158°
2026-04-16 16:38 39.02103 132.21393 27171 ft 443 kts 158°
2026-04-16 16:38 38.99381 132.23240 27174 ft 443 kts 158°
2026-04-16 16:39 38.96654 132.25082 27171 ft 443 kts 158°
2026-04-16 16:39 38.93928 132.26928 27183 ft 443 kts 158°
2026-04-16 16:39 38.91190 132.28775 27173 ft 443 kts 158°
2026-04-16 16:39 38.88462 132.30616 27169 ft 443 kts 158°
2026-04-16 16:40 38.85730 132.32459 27171 ft 443 kts 158°
2026-04-16 16:40 38.83000 132.34297 27174 ft 443 kts 158°
2026-04-16 16:40 38.80275 132.36134 27177 ft 443 kts 158°
2026-04-16 16:40 38.77544 132.37967 27174 ft 443 kts 158°
2026-04-16 16:41 38.74811 132.39806 27176 ft 443 kts 158°
2026-04-16 16:41 38.72076 132.41640 27174 ft 443 kts 158°
2026-04-16 16:41 38.69349 132.43472 27179 ft 443 kts 158°
2026-04-16 16:41 38.66650 132.45279 27172 ft 443 kts 158°
2026-04-16 16:42 38.63895 132.47044 27172 ft 439 kts 163°
2026-04-16 16:42 38.60988 132.47978 27174 ft 428 kts 176°
2026-04-16 16:42 38.58049 132.48608 27172 ft 427 kts 177°
2026-04-16 16:42 38.55110 132.49158 27172 ft 427 kts 178°
2026-04-16 16:43 38.52170 132.49718 27173 ft 428 kts 178°
2026-04-16 16:43 38.49220 132.50320 27172 ft 428 kts 177°
2026-04-16 16:43 38.46280 132.50927 27168 ft 428 kts 177°
2026-04-16 16:43 38.44332 132.51313 27169 ft 428 kts 178°
2026-04-16 16:44 38.41390 132.51894 27175 ft 428 kts 178°
2026-04-16 16:44 38.38451 132.52475 27173 ft 428 kts 177°
2026-04-16 16:44 38.35505 132.53068 27173 ft 428 kts 178°
2026-04-16 16:44 38.32566 132.53654 27175 ft 428 kts 177°
2026-04-16 16:45 38.28665 132.54428 27418 ft 428 kts 177°
2026-04-16 16:45 38.26667 132.54823 27430 ft 433 kts 176°
2026-04-16 16:45 38.22768 132.55603 27257 ft 431 kts 176°
2026-04-16 16:45 38.20750 132.55999 27184 ft 435 kts 176°
2026-04-16 16:46 38.17836 132.56583 27183 ft 427 kts 176°
2026-04-16 16:46 38.14879 132.57165 27183 ft 431 kts 176°
2026-04-16 16:46 38.11904 132.57754 27184 ft 435 kts 176°
2026-04-16 16:46 38.08904 132.58345 27182 ft 438 kts 176°
2026-04-16 16:47 38.05886 132.58947 27180 ft 440 kts 176°
2026-04-16 16:47 38.02854 132.59545 27182 ft 442 kts 176°
2026-04-16 16:47 37.99810 132.60145 27187 ft 443 kts 176°
2026-04-16 16:47 37.96774 132.60746 26926 ft 439 kts 177°
2026-04-16 16:48 37.93777 132.61342 27054 ft 433 kts 177°
2026-04-16 16:48 37.90810 132.61933 27168 ft 429 kts 177°
2026-04-16 16:48 37.87860 132.62511 27169 ft 429 kts 177°
2026-04-16 16:48 37.84916 132.63095 27170 ft 429 kts 177°
2026-04-16 16:49 37.81970 132.63677 27170 ft 428 kts 177°
2026-04-16 16:49 37.79027 132.64261 27170 ft 428 kts 177°
2026-04-16 16:49 37.76089 132.64840 27170 ft 428 kts 177°
2026-04-16 16:49 37.73145 132.65420 27168 ft 427 kts 177°
2026-04-16 16:50 37.70220 132.66001 27167 ft 417 kts 177°
2026-04-16 16:50 37.67358 132.66565 27167 ft 417 kts 178°
2026-04-16 16:50 37.64482 132.67126 27170 ft 419 kts 178°
2026-04-16 16:50 37.61594 132.67690 27168 ft 421 kts 178°
2026-04-16 16:51 37.58734 132.68256 27163 ft 422 kts 177°
2026-04-16 16:51 37.55796 132.68830 27167 ft 422 kts 178°
2026-04-16 16:51 37.52888 132.69402 27163 ft 423 kts 178°
2026-04-16 16:51 37.49973 132.69969 27162 ft 424 kts 177°
2026-04-16 16:52 37.47058 132.70541 27163 ft 424 kts 178°
2026-04-16 16:52 37.44180 132.71103 27167 ft 424 kts 177°
2026-04-16 16:52 37.41260 132.71673 27166 ft 425 kts 178°
2026-04-16 16:52 37.38336 132.72244 27163 ft 425 kts 177°
2026-04-16 16:53 37.35417 132.72811 27164 ft 425 kts 178°
2026-04-16 16:53 37.32495 132.73383 27164 ft 425 kts 177°
2026-04-16 16:53 37.29573 132.73950 27166 ft 425 kts 177°
2026-04-16 16:53 37.26649 132.74561 27164 ft 426 kts 176°
2026-04-16 16:54 37.23728 132.75177 27159 ft 426 kts 176°
2026-04-16 16:54 37.20806 132.75779 27163 ft 425 kts 177°
2026-04-16 16:54 37.17883 132.76368 27161 ft 426 kts 177°
2026-04-16 16:54 37.14961 132.76968 27162 ft 426 kts 177°
2026-04-16 16:55 37.12042 132.77570 27161 ft 426 kts 176°
2026-04-16 16:55 37.09120 132.78169 27159 ft 425 kts 177°
2026-04-16 16:55 37.06195 132.78767 27159 ft 425 kts 176°
2026-04-16 16:55 37.03269 132.79362 27159 ft 425 kts 177°
2026-04-16 16:56 37.00383 132.79956 27156 ft 426 kts 176°
2026-04-16 16:56 36.97464 132.80549 27159 ft 426 kts 176°
2026-04-16 16:56 36.94541 132.81148 27157 ft 425 kts 177°
2026-04-16 16:56 36.91613 132.81742 27153 ft 425 kts 176°
2026-04-16 16:57 36.88691 132.82339 27150 ft 425 kts 177°
2026-04-16 16:57 36.82849 132.83527 27156 ft 425 kts 177°
2026-04-16 16:57 36.79927 132.84122 27150 ft 425 kts 176°
2026-04-16 16:58 36.77006 132.84713 27153 ft 425 kts 177°
2026-04-16 16:58 36.74084 132.85309 27152 ft 425 kts 176°
2026-04-16 16:58 36.71162 132.85898 27153 ft 425 kts 176°
2026-04-16 16:58 36.68238 132.86493 27148 ft 425 kts 177°
2026-04-16 16:59 36.65316 132.87079 27150 ft 425 kts 176°
2026-04-16 16:59 36.62395 132.87670 27151 ft 425 kts 177°
2026-04-16 16:59 36.59507 132.88251 27149 ft 425 kts 176°
2026-04-16 16:59 36.56586 132.88839 27146 ft 425 kts 177°
2026-04-16 17:00 36.53663 132.89429 27149 ft 425 kts 176°
2026-04-16 17:00 36.50739 132.90014 27149 ft 425 kts 177°
2026-04-16 17:00 36.47822 132.90603 27145 ft 425 kts 177°
2026-04-16 17:00 36.44899 132.91187 27148 ft 425 kts 177°
2026-04-16 17:01 36.41983 132.91775 27147 ft 425 kts 177°
2026-04-16 17:01 36.39059 132.92358 27146 ft 425 kts 176°
2026-04-16 17:01 36.36145 132.92945 26911 ft 419 kts 176°
2026-04-16 17:01 36.33319 132.93515 26414 ft 404 kts 176°
2026-04-16 17:02 36.30580 132.94063 25927 ft 392 kts 177°
2026-04-16 17:02 36.27950 132.94585 25451 ft 384 kts 176°
2026-04-16 17:02 36.25337 132.95102 24976 ft 378 kts 176°
2026-04-16 17:02 36.22761 132.95620 24493 ft 373 kts 176°
2026-04-16 17:03 36.20214 132.96125 24028 ft 369 kts 176°
2026-04-16 17:03 36.17667 132.96633 23629 ft 376 kts 178°
2026-04-16 17:03 36.15073 132.97142 22990 ft 377 kts 177°
2026-04-16 17:03 36.12496 132.97664 22506 ft 373 kts 177°
2026-04-16 17:04 36.09944 132.98175 22024 ft 371 kts 177°
2026-04-16 17:04 36.07403 132.98676 21547 ft 368 kts 177°
2026-04-16 17:04 36.04879 132.99177 21060 ft 366 kts 177°
2026-04-16 17:04 36.02361 132.99677 20592 ft 365 kts 176°
2026-04-16 17:05 35.99857 133.00172 20118 ft 364 kts 176°
2026-04-16 17:05 35.97356 133.00672 19643 ft 363 kts 176°
2026-04-16 17:05 35.94861 133.01162 19164 ft 363 kts 176°
2026-04-16 17:05 35.92374 133.01658 18700 ft 362 kts 175°
2026-04-16 17:06 35.89888 133.02146 18196 ft 361 kts 175°
2026-04-16 17:06 35.87413 133.02640 17715 ft 359 kts 175°
2026-04-16 17:06 35.84952 133.03124 17241 ft 357 kts 174°
2026-04-16 17:06 35.82505 133.03609 16781 ft 355 kts 174°
2026-04-16 17:07 35.80063 133.04089 16320 ft 354 kts 174°
2026-04-16 17:07 35.77628 133.04571 15856 ft 354 kts 174°
2026-04-16 17:07 35.75229 133.05043 15396 ft 353 kts 173°
2026-04-16 17:07 35.72803 133.05521 14936 ft 353 kts 173°
2026-04-16 17:08 35.70377 133.06000 14471 ft 353 kts 172°
2026-04-16 17:08 35.67969 133.06473 14007 ft 345 kts 172°
2026-04-16 17:08 35.65636 133.06937 13453 ft 335 kts 172°
2026-04-16 17:08 35.63375 133.07377 13013 ft 324 kts 172°
2026-04-16 17:09 35.61186 133.07810 12607 ft 315 kts 172°
2026-04-16 17:09 35.59049 133.08226 12212 ft 308 kts 171°
2026-04-16 17:09 35.56947 133.08628 11815 ft 303 kts 174°
2026-04-16 17:09 35.54897 133.08374 11419 ft 296 kts 201°
2026-04-16 17:10 35.53145 133.07143 11028 ft 288 kts 225°
2026-04-16 17:10 35.51987 133.05196 10657 ft 280 kts 248°
2026-04-16 17:10 35.51350 133.02966 10275 ft 276 kts 255°
2026-04-16 17:10 35.50741 133.00731 9917 ft 275 kts 255°
2026-04-16 17:11 35.50147 132.98502 9534 ft 274 kts 255°
2026-04-16 17:11 35.49543 132.96295 9166 ft 272 kts 255°
2026-04-16 17:11 35.48946 132.94122 8813 ft 272 kts 255°
2026-04-16 17:11 35.48342 132.91931 8468 ft 272 kts 255°
2026-04-16 17:12 35.47745 132.89730 8105 ft 272 kts 255°
2026-04-16 17:12 35.47139 132.87522 7737 ft 274 kts 255°
2026-04-16 17:12 35.46530 132.85305 7373 ft 274 kts 255°
2026-04-16 17:12 35.45920 132.83087 7014 ft 274 kts 255°
2026-04-16 17:13 35.45310 132.80869 6672 ft 275 kts 255°
2026-04-16 17:13 35.44700 132.78643 6310 ft 277 kts 255°
2026-04-16 17:13 35.44081 132.76402 5921 ft 278 kts 255°
2026-04-16 17:13 35.43468 132.74164 5575 ft 277 kts 254°
2026-04-16 17:14 35.42845 132.71921 5203 ft 276 kts 253°
2026-04-16 17:14 35.42235 132.69691 4849 ft 276 kts 253°
2026-04-16 17:14 35.41509 132.67519 4469 ft 276 kts 238°
2026-04-16 17:14 35.40142 132.65999 4112 ft 265 kts 211°
2026-04-16 17:15 35.38443 132.65347 3825 ft 251 kts 182°
2026-04-16 17:15 35.36773 132.65587 3604 ft 234 kts 157°
2026-04-16 17:15 35.35388 132.66468 3394 ft 218 kts 146°
2026-04-16 17:15 35.34085 132.67403 3197 ft 215 kts 144°
2026-04-16 17:16 35.33088 132.68711 2989 ft 210 kts 114°
2026-04-16 17:16 35.32764 132.70412 2807 ft 204 kts 87°
2026-04-16 17:16 35.33141 132.72045 2615 ft 198 kts 60°
2026-04-16 17:16 35.33830 132.73439 2459 ft 181 kts 59°
2026-04-16 17:17 35.34448 132.74708 2288 ft 165 kts 59°
2026-04-16 17:17 35.35007 132.75855 2142 ft 151 kts 59°
2026-04-16 17:17 35.35479 132.76827 1994 ft 119 kts 60°
2026-04-16 17:17 35.35870 132.77627 1850 ft 103 kts 59°
2026-04-16 17:18 35.36219 132.78364 1734 ft 100 kts 60°
2026-04-16 17:18 35.36580 132.79104 1633 ft 103 kts 60°
2026-04-16 17:18 35.36951 132.79867 1512 ft 105 kts 58°
2026-04-16 17:18 35.37320 132.80632 1372 ft 103 kts 59°
2026-04-16 17:19 35.37689 132.81390 1228 ft 104 kts 62°
2026-04-16 17:19 35.38058 132.82146 1092 ft 103 kts 62°
2026-04-16 17:19 35.38419 132.82887 960 ft 99 kts 61°
2026-04-16 17:19 35.38769 132.83618 822 ft 99 kts 60°
2026-04-16 17:20 35.39116 132.84341 690 ft 100 kts 63°
2026-04-16 17:20 35.39478 132.85080 577 ft 104 kts 62°
2026-04-16 17:20 35.39831 132.85807 426 ft 94 kts 62°
2026-04-16 17:20 35.40155 132.86468 298 ft 91 kts 62°
2026-04-16 17:21 35.40488 132.87162 212 ft 96 kts 64°
2026-04-16 17:21 35.40839 132.87868 135 ft 98 kts 60°
2026-04-16 17:21 35.41135 132.88564 13 ft 83 kts 55°
2026-04-16 17:21 35.41336 132.88876 11 ft 17 kts 11°
2026-04-16 17:22 35.41385 132.88850 13 ft 9 kts 336°
2026-04-16 17:22 35.41410 132.88799 13 ft 2 kts 259°
2026-04-16 17:22 35.41406 132.88782 13 ft 6 kts 245°
2026-04-16 17:22 35.41384 132.88728 13 ft 7 kts 243°
2026-04-16 17:23 35.41369 132.88693 12 ft 4 kts 243°
2026-04-16 17:23 35.41367 132.88675 12 ft 2 kts 314°
2026-04-16 17:23 35.41370 132.88674 12 ft 0 kts 342°